TimeCDT,TemperatureF,Dew PointF,Humidity,Sea Level PressureIn,VisibilityMPH,Wind Direction,Wind SpeedMPH,Gust SpeedMPH,PrecipitationIn,Events,Conditions,WindDirDegrees,DateUTC
12:53 AM,79.0,63.0,58,30.02,10.0,SSW,10.4,-,N/A,,Clear,210,2013-09-11 05:53:00
1:53 AM,77.0,63.0,62,30.03,10.0,WSW,6.9,-,N/A,,Overcast,240,2013-09-11 06:53:00
2:53 AM,77.0,63.0,62,30.04,10.0,West,8.1,-,N/A,,Partly Cloudy,260,2013-09-11 07:53:00
3:53 AM,73.9,63.0,68,30.05,10.0,West,4.6,-,N/A,,Partly Cloudy,270,2013-09-11 08:53:00
4:53 AM,73.0,64.0,73,30.06,10.0,West,3.5,-,N/A,,Partly Cloudy,270,2013-09-11 09:53:00
5:53 AM,72.0,64.0,76,30.06,10.0,WNW,3.5,-,N/A,,Clear,300,2013-09-11 10:53:00
6:53 AM,72.0,64.9,78,30.08,10.0,Calm,Calm,-,N/A,,Mostly Cloudy,0,2013-09-11 11:53:00
7:53 AM,71.1,64.9,81,30.08,10.0,Calm,Calm,-,N/A,,Clear,0,2013-09-11 12:53:00
8:53 AM,75.0,66.0,73,30.08,10.0,Calm,Calm,-,N/A,,Clear,0,2013-09-11 13:53:00
9:53 AM,77.0,66.0,69,30.08,10.0,South,3.5,-,N/A,,Partly Cloudy,170,2013-09-11 14:53:00
10:53 AM,82.0,66.0,58,30.10,10.0,Calm,Calm,-,N/A,,Clear,0,2013-09-11 15:53:00
11:53 AM,80.1,68.0,67,30.09,10.0,Calm,Calm,-,0.01,,Scattered Clouds,0,2013-09-11 16:53:00
12:53 PM,79.0,69.1,72,30.09,10.0,NNW,8.1,-,N/A,,Overcast,340,2013-09-11 17:53:00
1:53 PM,84.0,68.0,58,30.07,10.0,North,4.6,-,0.00,,Scattered Clouds,360,2013-09-11 18:53:00
2:53 PM,87.1,64.9,48,30.06,10.0,Variable,3.5,-,N/A,,Partly Cloudy,0,2013-09-11 19:53:00
3:53 PM,86.0,63.0,46,30.05,10.0,SW,8.1,-,N/A,,Scattered Clouds,230,2013-09-11 20:53:00
4:53 PM,88.0,63.0,43,30.03,10.0,WNW,4.6,-,N/A,,Mostly Cloudy,300,2013-09-11 21:53:00
5:53 PM,86.0,64.0,48,30.03,10.0,WNW,4.6,-,N/A,,Scattered Clouds,290,2013-09-11 22:53:00
6:53 PM,82.0,64.0,54,30.03,10.0,South,4.6,-,N/A,,Mostly Cloudy,190,2013-09-11 23:53:00
7:34 PM,78.8,66.2,65,30.07,9.0,West,24.2,43.7,N/A,Thunderstorm,Thunderstorm,260,2013-09-12 00:34:00
7:39 PM,71.6,66.2,83,30.14,0.8,West,38.0,56.4,0.05,Rain-Thunderstorm,Heavy Thunderstorms and Rain,260,2013-09-12 00:39:00
7:49 PM,71.6,66.2,83,30.09,1.0,Variable,6.9,17.3,0.47,Rain-Thunderstorm,Heavy Thunderstorms and Rain,0,2013-09-12 00:49:00
7:53 PM,73.0,68.0,84,30.06,2.0,Variable,3.5,17.3,0.57,Rain-Thunderstorm,Heavy Thunderstorms and Rain,0,2013-09-12 00:53:00
8:09 PM,73.4,69.8,88,30.08,4.0,Variable,4.6,-,0.11,Rain-Thunderstorm,Light Rain,0,2013-09-12 01:09:00
8:41 PM,71.6,68.0,88,30.08,10.0,West,3.5,-,0.11,Rain,Light Rain,260,2013-09-12 01:41:00
8:53 PM,71.1,69.1,93,30.06,10.0,NNE,4.6,-,0.11,,Partly Cloudy,30,2013-09-12 01:53:00
9:53 PM,72.0,69.1,91,30.07,10.0,Calm,Calm,-,N/A,,Scattered Clouds,0,2013-09-12 02:53:00
10:53 PM,71.1,69.1,93,30.08,10.0,SSW,3.5,-,N/A,,Mostly Cloudy,210,2013-09-12 03:53:00
11:53 PM,71.1,69.1,93,30.06,7.0,North,4.6,-,N/A,,Mostly Cloudy,360,2013-09-12 04:53:00